When you browse on this site, cookies collect data to enhance your experience and personalize the content and advertising you see.
Visit our Privacy Policy to learn more. By continuing to use the site, you agree to this use of cookies and data.
  • în România
  • Lista ţărilor
  • Pe 7 zile
  • Temperatura apei
  • Hartă satelitară
  • Meteo pe hartă
  • Widget-uri
  • user-avatar
    Intrare

    Meteo pe oră la Cabimas

    Astăzi, 24 Martie, Duminică

    Timp Temperatura Precipitaţii Vânt Presiune Umiditate
    00:00 +30°C° 0 mm 3 m/s 760 mmHg 61%
    01:00 +30°C° 0 mm 2 m/s 760 mmHg 61%
    02:00 +29°C° 0 mm 2 m/s 760 mmHg 62%
    03:00 +29°C° 0 mm 2 m/s 759 mmHg 63%
    04:00 +29°C° 0 mm 2 m/s 759 mmHg 64%
    05:00 +29°C° 0 mm 2 m/s 760 mmHg 63%
    06:00 +29°C° 0 mm 2 m/s 760 mmHg 62%
    07:00 +29°C° 0 mm 2 m/s 760 mmHg 62%
    08:00 +31°C° 0 mm 1 m/s 760 mmHg 56%
    09:00 +34°C° 0 mm 1 m/s 761 mmHg 50%
    10:00 +36°C° 0 mm 1 m/s 761 mmHg 43%
    11:00 +36°C° 0 mm 1 m/s 760 mmHg 42%
    12:00 +38°C° 0 mm 2 m/s 759 mmHg 41%
    13:00 +38°C° 0 mm 3 m/s 758 mmHg 40%
    14:00 +37°C° 0 mm 3 m/s 758 mmHg 41%
    15:00 +37°C° 0 mm 3 m/s 757 mmHg 42%
    16:00 +36°C° 0 mm 4 m/s 757 mmHg 44%
    17:00 +35°C° 0 mm 4 m/s 757 mmHg 47%
    18:00 +34°C° 0 mm 5 m/s 758 mmHg 51%
    19:00 +33°C° 0 mm 5 m/s 758 mmHg 55%
    20:00 +32°C° 0 mm 5 m/s 758 mmHg 55%
    21:00 +32°C° 0 mm 4 m/s 759 mmHg 55%
    22:00 +32°C° 0 mm 4 m/s 759 mmHg 56%
    23:00 +30°C° 0 mm 3 m/s 759 mmHg 56%

    Mâine, 25 Martie, Luni

    Timp Temperatura Precipitaţii Vânt Presiune Umiditate
    00:00 +30°C° 0 mm 3 m/s 759 mmHg 57%
    01:00 +29°C° 0 mm 3 m/s 758 mmHg 58%
    02:00 +29°C° 0 mm 3 m/s 758 mmHg 59%
    03:00 +29°C° 0 mm 3 m/s 758 mmHg 60%
    04:00 +28°C° 0 mm 2 m/s 758 mmHg 60%
    05:00 +28°C° 0 mm 2 m/s 758 mmHg 59%
    06:00 +29°C° 0 mm 2 m/s 758 mmHg 59%
    07:00 +29°C° 0 mm 2 m/s 759 mmHg 58%
    08:00 +31°C° 0 mm 1 m/s 759 mmHg 54%
    09:00 +33°C° 0 mm 1 m/s 759 mmHg 50%
    10:00 +35°C° 0 mm 1 m/s 759 mmHg 46%
    11:00 +36°C° 0 mm 1 m/s 758 mmHg 44%
    12:00 +37°C° 0 mm 2 m/s 757 mmHg 43%
    13:00 +38°C° 0 mm 2 m/s 756 mmHg 41%
    14:00 +37°C° 0 mm 3 m/s 756 mmHg 42%
    15:00 +37°C° 0 mm 4 m/s 755 mmHg 43%
    16:00 +36°C° 0 mm 5 m/s 755 mmHg 44%
    17:00 +35°C° 0 mm 5 m/s 755 mmHg 46%
    18:00 +34°C° 0 mm 5 m/s 756 mmHg 49%
    19:00 +32°C° 0 mm 6 m/s 756 mmHg 51%
    20:00 +32°C° 0 mm 6 m/s 757 mmHg 52%
    21:00 +30°C° 0 mm 6 m/s 758 mmHg 53%
    22:00 +30°C° 0 mm 5 m/s 758 mmHg 54%
    23:00 +29°C° 0 mm 5 m/s 758 mmHg 56%

    Poimâine, 26 Martie, Marţi

    Timp Temperatura Precipitaţii Vânt Presiune Umiditate
    00:00 +29°C° 0 mm 5 m/s 758 mmHg 58%
    01:00 +29°C° 0 mm 4 m/s 757 mmHg 60%
    02:00 +29°C° 0 mm 4 m/s 757 mmHg 60%
    03:00 +28°C° 0 mm 3 m/s 757 mmHg 61%
    04:00 +28°C° 0 mm 3 m/s 757 mmHg 61%
    05:00 +28°C° 0 mm 2 m/s 757 mmHg 59%
    06:00 +29°C° 0 mm 2 m/s 758 mmHg 58%
    07:00 +29°C° 0 mm 2 m/s 758 mmHg 56%
    08:00 +31°C° 0 mm 1 m/s 758 mmHg 53%
    09:00 +32°C° 0 mm 1 m/s 758 mmHg 49%
    10:00 +34°C° 0 mm 1 m/s 759 mmHg 46%
    11:00 +35°C° 0 mm 1 m/s 758 mmHg 43%
    12:00 +37°C° 0 mm 2 m/s 757 mmHg 41%
    13:00 +38°C° 0 mm 2 m/s 756 mmHg 38%
    14:00 +38°C° 0 mm 2 m/s 756 mmHg 39%
    15:00 +37°C° 0 mm 2 m/s 755 mmHg 39%
    16:00 +37°C° 0 mm 2 m/s 754 mmHg 39%
    17:00 +36°C° 0 mm 3 m/s 755 mmHg 45%
    18:00 +34°C° 0 mm 4 m/s 755 mmHg 50%
    19:00 +33°C° 0 mm 5 m/s 756 mmHg 55%
    20:00 +32°C° 0 mm 5 m/s 757 mmHg 58%
    21:00 +32°C° 0 mm 4 m/s 757 mmHg 60%
    22:00 +30°C° 0 mm 4 m/s 758 mmHg 62%
    23:00 +30°C° 0 mm 4 m/s 758 mmHg 63%

    27 Martie, Miercuri

    Timp Temperatura Precipitaţii Vânt Presiune Umiditate
    00:00 +30°C° 0 mm 4 m/s 757 mmHg 65%
    01:00 +30°C° 0 mm 4 m/s 757 mmHg 66%
    02:00 +29°C° 0 mm 4 m/s 757 mmHg 67%
    03:00 +29°C° 0 mm 4 m/s 757 mmHg 67%
    04:00 +29°C° 0 mm 3 m/s 757 mmHg 68%
    05:00 +29°C° 0 mm 3 m/s 757 mmHg 67%
    06:00 +29°C° 0 mm 3 m/s 758 mmHg 65%
    07:00 +30°C° 0 mm 2 m/s 759 mmHg 63%
    08:00 +32°C° 0 mm 2 m/s 759 mmHg 57%
    09:00 +34°C° 0 mm 2 m/s 759 mmHg 51%
    10:00 +36°C° 0 mm 2 m/s 759 mmHg 46%
    11:00 +37°C° 0 mm 2 m/s 758 mmHg 44%
    12:00 +37°C° 0 mm 2 m/s 757 mmHg 42%
    13:00 +38°C° 0 mm 2 m/s 756 mmHg 41%
    14:00 +37°C° 0 mm 3 m/s 756 mmHg 41%
    15:00 +37°C° 0 mm 4 m/s 755 mmHg 42%
    16:00 +37°C° 0 mm 4 m/s 755 mmHg 43%
    17:00 +35°C° 0 mm 5 m/s 756 mmHg 46%
    18:00 +34°C° 0 mm 6 m/s 756 mmHg 50%
    19:00 +33°C° 0 mm 6 m/s 757 mmHg 53%
    20:00 +32°C° 0 mm 6 m/s 757 mmHg 56%
    21:00 +32°C° 0 mm 6 m/s 758 mmHg 58%
    22:00 +30°C° 0 mm 5 m/s 758 mmHg 61%
    23:00 +30°C° 0 mm 5 m/s 758 mmHg 61%

    28 Martie, Joi

    Timp Temperatura Precipitaţii Vânt Presiune Umiditate
    00:00 +30°C° 0 mm 5 m/s 758 mmHg 62%
    01:00 +30°C° 0 mm 4 m/s 758 mmHg 62%
    02:00 +29°C° 0 mm 4 m/s 757 mmHg 63%
    03:00 +29°C° 0 mm 4 m/s 757 mmHg 64%
    04:00 +29°C° 0 mm 4 m/s 757 mmHg 64%
    05:00 +29°C° 0 mm 3 m/s 758 mmHg 63%
    06:00 +29°C° 0 mm 3 m/s 758 mmHg 62%
    07:00 +29°C° 0 mm 2 m/s 759 mmHg 61%
    08:00 +31°C° 0 mm 2 m/s 759 mmHg 56%
    09:00 +34°C° 0 mm 2 m/s 759 mmHg 52%
    10:00 +35°C° 0 mm 2 m/s 759 mmHg 47%
    11:00 +36°C° 0 mm 2 m/s 758 mmHg 45%
    12:00 +37°C° 0 mm 2 m/s 757 mmHg 43%
    13:00 +38°C° 0 mm 2 m/s 756 mmHg 41%
    14:00 +37°C° 0 mm 2 m/s 756 mmHg 42%
    15:00 +37°C° 0 mm 3 m/s 755 mmHg 43%
    16:00 +36°C° 0 mm 4 m/s 755 mmHg 45%
    17:00 +35°C° 0 mm 4 m/s 756 mmHg 49%
    18:00 +34°C° 0 mm 4 m/s 756 mmHg 53%
    19:00 +33°C° 0 mm 5 m/s 757 mmHg 57%
    20:00 +32°C° 0 mm 5 m/s 758 mmHg 59%
    21:00 +32°C° 0 mm 4 m/s 758 mmHg 62%
    22:00 +30°C° 0 mm 4 m/s 758 mmHg 64%
    23:00 +30°C° 0 mm 4 m/s 758 mmHg 66%

    29 Martie, Vineri

    Timp Temperatura Precipitaţii Vânt Presiune Umiditate
    00:00 +30°C° 0 mm 4 m/s 758 mmHg 68%
    01:00 +29°C° 0 mm 4 m/s 757 mmHg 69%
    02:00 +29°C° 0 mm 4 m/s 757 mmHg 71%
    03:00 +29°C° 0 mm 4 m/s 757 mmHg 72%
    04:00 +29°C° 0 mm 4 m/s 757 mmHg 74%
    05:00 +29°C° 0 mm 4 m/s 758 mmHg 74%
    06:00 +29°C° 0 mm 4 m/s 758 mmHg 73%
    07:00 +29°C° 0 mm 4 m/s 759 mmHg 73%
    08:00 +31°C° 0 mm 3 m/s 759 mmHg 67%
    09:00 +33°C° 0 mm 3 m/s 759 mmHg 60%
    10:00 +35°C° 0 mm 2 m/s 759 mmHg 54%
    11:00 +36°C° 0 mm 2 m/s 758 mmHg 50%
    12:00 +37°C° 0 mm 2 m/s 757 mmHg 47%
    13:00 +38°C° 0 mm 2 m/s 756 mmHg 44%
    14:00 +37°C° 0 mm 2 m/s 756 mmHg 45%
    15:00 +37°C° 0 mm 3 m/s 756 mmHg 46%
    16:00 +36°C° 0 mm 3 m/s 755 mmHg 47%
    17:00 +35°C° 0 mm 4 m/s 756 mmHg 52%
    18:00 +34°C° 0 mm 4 m/s 756 mmHg 57%
    19:00 +33°C° 0 mm 5 m/s 757 mmHg 61%
    20:00 +32°C° 0.2 mm 5 m/s 757 mmHg 65%
    21:00 +32°C° 0.2 mm 5 m/s 758 mmHg 68%
    22:00 +30°C° 0.2 mm 5 m/s 758 mmHg 71%
    23:00 +30°C° 0 mm 4 m/s 758 mmHg 74%
    Arată mai mult